EW6135 Weather Reports


Display with metric or nautical units.
time (UTC)temp
F
wind
direction
speed
MPH
gust
MPH
rain 1hr
in
rain 24hr
in
rain mn
in
humidity
%
barometer
mb
20260506091001 59 74 0.0 0.0 0.00 0.02 0.00 94 1015.6
20260506090600 59 74 0.0 0.0 0.00 0.02 0.00 94 1015.7
20260506090100 59 74 0.0 0.0 0.00 0.02 0.00 94 1015.7
20260506085559 60 74 0.0 0.0 0.00 0.02 0.00 94 1015.8
20260506085057 60 74 0.0 0.0 0.00 0.02 0.00 93 1015.8
20260506084603 60 74 0.0 1.0 0.00 0.02 0.00 93 1015.9
20260506084058 60 255 0.0 0.0 0.00 0.02 0.00 93 1015.9
20260506083556 61 255 0.0 0.0 0.00 0.02 0.00 92 1015.8
20260506083056 61 255 0.0 0.0 0.00 0.02 0.00 92 1015.8
20260506082555 61 255 0.0 0.0 0.00 0.02 0.00 93 1015.7
20260506082055 61 255 0.0 0.0 0.00 0.02 0.00 93 1015.9
20260506081555 61 255 0.0 0.0 0.00 0.02 0.00 94 1015.9
20260506080556 61 255 0.0 0.0 0.00 0.02 0.00 93 1015.7
20260506073047 62 255 0.0 1.0 0.00 0.02 0.00 91 1016.0
20260506072546 62 255 0.0 0.0 0.00 0.02 0.00 91 1016.1
20260506072045 63 255 0.0 0.0 0.00 0.02 0.00 90 1016.1
20260506071552 63 255 0.0 0.0 0.00 0.02 0.00 89 1016.1
20260506070550 63 255 0.0 0.0 0.00 0.02 0.00 89 1016.2
20260506062041 65 139 0.0 3.0 0.00 0.02 0.00 86 1015.9
20260506061540 65 124 0.0 1.0 0.00 0.02 0.00 85 1016.2
20260506060539 65 124 0.0 1.0 0.00 0.02 0.00 85 1016.3
20260506050529 66 107 0.0 4.0 0.00 0.02 0.00 83 1016.9
20260506045028 66 150 0.0 2.0 0.00 0.02 0.00 83 1016.9
20260506044536 66 290 0.0 4.0 0.00 0.02 0.00 83 1017.1
20260506044027 66 131 0.0 4.0 0.00 0.02 0.00 83 1017.2
20260506043526 66 164 0.0 3.0 0.00 0.02 0.00 83 1017.2
20260506043027 66 127 1.0 3.0 0.00 0.02 0.00 83 1017.1
20260506042528 66 65 0.0 4.0 0.00 0.02 0.00 83 1017.2
20260506042024 66 278 0.0 4.0 0.00 0.02 0.00 83 1017.4
20260506041525 66 256 0.0 4.0 0.00 0.02 0.00 83 1017.3
20260506040525 66 112 0.0 4.0 0.00 0.02 0.00 83 1017.3
20260506040023 66 262 0.0 4.0 0.00 0.02 0.00 82 1017.4
20260506035526 66 274 0.0 4.0 0.00 0.02 0.02 82 1017.4
20260506035023 66 316 0.0 4.0 0.00 0.02 0.02 82 1017.5
20260506034523 66 245 0.0 4.0 0.00 0.02 0.02 82 1017.4
20260506034023 66 115 0.0 2.0 0.00 0.02 0.02 82 1017.4
20260506033522 66 93 0.0 3.0 0.00 0.02 0.02 82 1017.5
20260506033032 66 268 0.0 3.0 0.00 0.02 0.02 83 1017.4
20260506032523 66 121 0.0 3.0 0.00 0.02 0.02 83 1017.4
20260506032022 66 245 0.0 3.0 0.00 0.02 0.02 83 1017.5
20260506031531 66 112 0.0 5.0 0.00 0.02 0.02 83 1017.5
20260506030524 66 120 0.0 5.0 0.00 0.02 0.02 83 1017.7
20260506030042 66 241 0.0 4.0 0.00 0.02 0.02 82 1017.6
20260506025522 66 262 0.0 4.0 0.00 0.02 0.02 83 1017.6
20260506025024 66 156 0.0 4.0 0.00 0.02 0.02 82 1017.6
20260506024527 66 97 0.0 2.0 0.00 0.02 0.02 82 1017.7
20260506024021 66 109 0.0 5.0 0.00 0.02 0.02 82 1017.6
20260506023521 66 253 1.0 5.0 0.00 0.02 0.02 82 1017.6
20260506023021 66 119 0.0 4.0 0.00 0.02 0.02 82 1017.7
20260506022521 67 281 1.0 4.0 0.00 0.02 0.02 82 1017.7
20260506022020 66 253 0.0 6.0 0.00 0.02 0.02 83 1017.6
20260506021521 66 118 1.0 5.0 0.00 0.02 0.02 83 1017.6
20260506020524 66 253 0.0 3.0 0.00 0.02 0.02 82 1017.5
20260506020020 66 101 0.0 4.0 0.00 0.02 0.02 82 1017.5
20260506015521 66 252 0.0 4.0 0.00 0.02 0.02 82 1017.6
20260506015021 66 68 0.0 3.0 0.00 0.02 0.02 82 1017.4
20260506014520 66 259 1.0 3.0 0.00 0.02 0.02 82 1017.4
20260506014020 66 63 0.0 3.0 0.00 0.02 0.02 82 1017.4
20260506013523 66 141 0.0 3.0 0.00 0.02 0.02 82 1017.3
20260506013019 67 81 1.0 6.0 0.00 0.02 0.02 82 1017.3
20260506012520 66 232 1.0 4.0 0.00 0.02 0.02 82 1017.2
20260506012020 66 117 0.0 2.0 0.00 0.02 0.02 82 1017.3
20260506011529 66 146 1.0 4.0 0.01 0.02 0.02 83 1017.3
20260506010521 66 275 0.0 5.0 0.01 0.02 0.02 84 1017.3
20260506010021 66 139 1.0 5.0 0.02 0.02 0.02 84 1017.2
20260506005521 66 102 0.0 0.0 0.02 0.04 0.02 84 1017.2
20260506005021 67 102 0.0 3.0 0.02 0.04 0.02 84 1017.3
20260506004540 67 102 0.0 3.0 0.02 0.04 0.02 84 1017.3
20260506004121 67 124 0.0 4.0 0.02 0.04 0.02 84 1017.2
20260506003521 67 248 1.0 4.0 0.02 0.04 0.02 84 1017.3
20260506003031 67 179 0.0 3.0 0.02 0.04 0.02 83 1017.2
20260506002520 67 256 0.0 3.0 0.02 0.04 0.02 83 1017.1
20260506002020 67 269 0.0 3.0 0.02 0.04 0.02 82 1017.2
20260506001523 68 240 0.0 2.0 0.02 0.04 0.02 80 1017.1
20260506000518 68 238 0.0 2.0 0.01 0.03 0.01 79 1017.1
20260506000022 68 224 0.0 3.0 0.00 0.02 0.00 79 1017.1
20260505235517 68 247 1.0 3.0 0.00 0.02 0.00 78 1017.1
20260505235018 68 249 0.0 4.0 0.00 0.02 0.00 77 1017.1
20260505234517 69 246 0.0 5.0 0.00 0.02 0.00 77 1017.1
20260505234117 69 244 0.0 5.0 0.00 0.02 0.00 76 1017.2
20260505233520 69 235 0.0 4.0 0.00 0.02 0.00 75 1017.1
20260505233017 70 152 0.0 5.0 0.00 0.02 0.00 74 1017.1
20260505232517 70 229 2.0 6.0 0.00 0.02 0.00 73 1017.1
20260505232017 71 260 2.0 6.0 0.00 0.02 0.00 72 1017.1
20260505231525 72 229 0.0 9.0 0.00 0.02 0.00 71 1017.1
20260505230519 72 269 1.0 7.0 0.00 0.02 0.00 69 1017.1
20260505230021 72 236 0.0 9.0 0.00 0.02 0.00 69 1017.1
20260505225517 72 240 4.0 9.0 0.00 0.02 0.00 69 1017.1
20260505225022 73 194 2.0 7.0 0.00 0.02 0.00 68 1017.2
20260505224517 73 260 1.0 11.0 0.00 0.02 0.00 69 1017.1
20260505224016 73 283 1.0 8.0 0.00 0.02 0.00 70 1017.1
20260505223516 72 227 0.0 10.0 0.00 0.02 0.00 70 1017.2
20260505223016 71 235 2.0 10.0 0.00 0.02 0.00 70 1017.2
20260505222519 72 233 0.0 7.0 0.00 0.02 0.00 70 1017.2
20260505222016 73 258 2.0 6.0 0.00 0.02 0.00 69 1017.2
20260505221519 74 217 1.0 8.0 0.00 0.02 0.00 68 1017.1
20260505220516 73 300 1.0 8.0 0.00 0.02 0.00 69 1016.9
20260505220016 73 79 1.0 7.0 0.00 0.02 0.00 68 1016.9
20260505215516 73 236 1.0 7.0 0.00 0.02 0.00 69 1017.0
20260505215020 73 231 2.0 10.0 0.00 0.02 0.00 69 1016.9
20260505214516 72 242 3.0 10.0 0.00 0.02 0.00 68 1016.9
20260505214016 73 236 1.0 9.0 0.00 0.02 0.00 68 1016.9
20260505213517 73 134 1.0 16.0 0.00 0.02 0.00 68 1016.9
20260505213014 73 248 3.0 8.0 0.00 0.02 0.00 69 1016.8
20260505212514 73 239 3.0 8.0 0.00 0.02 0.00 68 1016.9
20260505212015 73 293 3.0 8.0 0.00 0.02 0.00 67 1017.0
20260505211515 74 101 3.0 9.0 0.00 0.02 0.00 65 1017.1
20260505210515 74 117 3.0 9.0 0.00 0.02 0.00 64 1017.1
20260505210014 74 257 1.0 9.0 0.00 0.02 0.00 69 1017.2
20260505205514 74 250 1.0 7.0 0.00 0.02 0.00 69 1017.2
20260505205014 74 258 2.0 9.0 0.00 0.02 0.00 67 1017.2
20260505204514 75 252 2.0 15.0 0.00 0.02 0.00 65 1017.1
20260505204013 75 25 2.0 15.0 0.00 0.02 0.00 66 1017.1
20260505203512 75 269 3.0 9.0 0.00 0.02 0.00 66 1017.1
20260505203024 75 313 2.0 11.0 0.00 0.02 0.00 64 1017.2
20260505202512 75 271 4.0 11.0 0.00 0.02 0.00 65 1017.2
20260505202012 76 235 3.0 8.0 0.00 0.02 0.00 64 1017.2
20260505201512 75 134 4.0 13.0 0.00 0.02 0.00 63 1017.3
20260505200512 75 245 5.0 13.0 0.00 0.02 0.00 63 1017.5
20260505200014 76 191 4.0 11.0 0.00 0.02 0.00 63 1017.5
20260505195514 76 236 2.0 12.0 0.00 0.02 0.00 64 1017.6
20260505195012 76 276 1.0 12.0 0.00 0.02 0.00 65 1017.6
20260505194511 76 243 3.0 14.0 0.00 0.02 0.00 63 1017.8
20260505194011 76 272 1.0 14.0 0.00 0.02 0.00 65 1017.9
20260505193510 76 238 2.0 12.0 0.00 0.02 0.00 64 1017.9
20260505193010 75 281 2.0 13.0 0.00 0.02 0.00 64 1017.9
20260505192510 75 233 5.0 10.0 0.00 0.02 0.00 65 1017.9
20260505192010 75 115 1.0 8.0 0.00 0.02 0.00 65 1018.0
20260505191509 74 130 3.0 12.0 0.00 0.02 0.00 64 1018.0
20260505190508 75 205 2.0 8.0 0.00 0.02 0.00 64 1018.1
20260505190009 76 160 1.0 6.0 0.00 0.02 0.00 65 1017.9
20260505185508 75 122 3.0 9.0 0.00 0.02 0.00 65 1018.1
20260505185012 75 264 3.0 10.0 0.00 0.02 0.00 65 1018.1
20260505184516 74 111 1.0 10.0 0.00 0.02 0.00 67 1018.3
20260505184008 74 217 4.0 10.0 0.00 0.02 0.00 65 1018.3
20260505183508 75 305 1.0 7.0 0.00 0.02 0.00 67 1018.3
20260505183006 75 248 2.0 13.0 0.00 0.02 0.00 65 1018.4
20260505182506 75 233 1.0 13.0 0.00 0.02 0.00 65 1018.3
20260505182006 75 102 3.0 10.0 0.00 0.02 0.00 67 1018.2
20260505181505 75 278 3.0 10.0 0.00 0.02 0.00 67 1018.3
20260505180507 75 241 2.0 10.0 0.00 0.02 0.00 67 1018.2
20260505180008 75 230 3.0 10.0 0.00 0.02 0.00 67 1018.3
20260505175505 76 212 3.0 8.0 0.00 0.02 0.00 65 1018.4
20260505175005 76 134 2.0 12.0 0.00 0.02 0.00 66 1018.4
20260505174505 75 226 2.0 12.0 0.00 0.02 0.00 67 1018.4
20260505174004 75 255 1.0 5.0 0.00 0.02 0.00 67 1018.5
20260505173503 75 179 1.0 11.0 0.00 0.02 0.00 67 1018.5
20260505173003 75 258 1.0 8.0 0.00 0.02 0.00 70 1018.5
20260505172502 74 170 3.0 13.0 0.00 0.02 0.00 67 1018.4
20260505172002 75 249 3.0 10.0 0.00 0.02 0.00 65 1018.3
20260505171504 75 258 1.0 6.0 0.00 0.02 0.00 71 1018.4
20260505170601 74 236 1.0 6.0 0.00 0.02 0.00 68 1018.4
20260505170502 74 243 2.0 6.0 0.00 0.02 0.00 68 1018.5
20260505170100 74 94 1.0 6.0 0.00 0.02 0.00 68 1018.5
20260505165600 75 258 2.0 6.0 0.00 0.02 0.00 64 1018.6
20260505165104 76 218 0.0 11.0 0.00 0.02 0.00 69 1018.6
20260505164559 75 247 2.0 11.0 0.00 0.02 0.00 66 1018.8
20260505164059 76 233 1.0 6.0 0.00 0.02 0.00 66 1018.9
20260505163559 75 152 1.0 13.0 0.00 0.02 0.00 69 1018.7
20260505163100 74 159 3.0 13.0 0.00 0.02 0.00 69 1018.8
20260505162600 74 80 3.0 9.0 0.00 0.02 0.00 68 1018.7
20260505162058 74 78 3.0 9.0 0.00 0.02 0.00 67 1018.8
20260505161601 74 266 3.0 11.0 0.00 0.02 0.00 65 1018.8
20260505160602 75 236 3.0 11.0 0.00 0.02 0.00 64 1018.7
20260505153104 76 166 3.0 9.0 0.00 0.02 0.00 61 1018.9
20260505152557 76 159 2.0 9.0 0.00 0.02 0.00 63 1018.9
20260505152054 76 209 4.0 12.0 0.00 0.02 0.00 65 1018.8
20260505151557 76 149 1.0 12.0 0.00 0.02 0.00 62 1018.8
20260505150555 76 101 1.0 12.0 0.00 0.02 0.00 67 1018.8
20260505140554 74 252 4.0 10.0 0.00 0.02 0.00 63 1018.7
20260505125038 70 246 1.0 5.0 0.00 0.02 0.00 75 1018.6
20260505124537 70 269 1.0 5.0 0.00 0.02 0.00 76 1018.7
20260505124036 69 294 1.0 5.0 0.00 0.02 0.00 78 1018.7
20260505123533 68 271 1.0 5.0 0.00 0.02 0.00 80 1018.6
20260505123047 68 254 1.0 3.0 0.00 0.02 0.00 84 1018.7
20260505122530 67 275 0.0 3.0 0.00 0.02 0.00 90 1018.7
20260505122029 65 288 0.0 1.0 0.00 0.02 0.00 96 1018.6
20260505121529 64 266 0.0 3.0 0.00 0.02 0.00 98 1018.6
20260505120526 62 291 0.0 1.0 0.00 0.02 0.00 99 1018.6
20260505120036 61 291 0.0 1.0 0.00 0.02 0.00 99 1018.6
20260505115524 60 291 0.0 1.0 0.00 0.02 0.00 99 1018.5
20260505115023 59 291 0.0 0.0 0.00 0.02 0.00 99 1018.5
20260505114523 58 291 0.0 0.0 0.00 0.02 0.00 99 1018.5
20260505114022 57 291 0.0 0.0 0.00 0.02 0.00 99 1018.5
20260505113521 56 291 0.0 0.0 0.00 0.02 0.00 99 1018.5
20260505113021 55 291 0.0 0.0 0.00 0.02 0.00 99 1018.4
20260505112522 55 291 0.0 0.0 0.00 0.02 0.00 99 1018.3
20260505112020 54 291 0.0 0.0 0.00 0.02 0.00 99 1018.3
20260505111529 54 291 0.0 0.0 0.00 0.02 0.00 99 1018.3
20260505110522 53 291 0.0 0.0 0.00 0.02 0.00 99 1018.2
20260505102012 51 291 0.0 0.0 0.00 0.02 0.00 98 1017.6
20260505101512 52 291 0.0 0.0 0.00 0.02 0.00 98 1017.5
20260505100513 51 291 0.0 0.0 0.00 0.02 0.00 98 1017.4
20260505100011 51 291 0.0 0.0 0.00 0.02 0.00 98 1017.4
20260505095510 52 291 0.0 0.0 0.00 0.02 0.00 98 1017.4
20260505095010 51 291 0.0 0.0 0.00 0.02 0.00 98 1017.4
20260505094509 52 291 0.0 0.0 0.00 0.02 0.00 98 1017.4
20260505094009 52 291 0.0 0.0 0.00 0.02 0.00 98 1017.2
20260505093509 52 291 0.0 0.0 0.00 0.02 0.00 98 1017.2
20260505093009 52 291 0.0 0.0 0.00 0.02 0.00 98 1017.2
20260505092508 52 291 0.0 0.0 0.00 0.02 0.00 98 1017.2
20260505092008 52 291 0.0 0.0 0.00 0.02 0.00 98 1017.2
20260505091510 52 291 0.0 0.0 0.00 0.02 0.00 98 1017.1